TimePDT,TemperatureF,Dew PointF,Humidity,Sea Level PressureIn,VisibilityMPH,Wind Direction,Wind SpeedMPH,Gust SpeedMPH,PrecipitationIn,Events,Conditions,WindDirDegrees,DateUTC
12:56 AM,48.0,37.9,68,30.22,10.0,Calm,Calm,-,N/A,,Scattered Clouds,0,2012-10-27 07:56:00
1:56 AM,46.0,37.0,71,30.22,10.0,Calm,Calm,-,N/A,,Mostly Cloudy,0,2012-10-27 08:56:00
2:56 AM,44.1,37.0,76,30.23,10.0,Calm,Calm,-,N/A,,Scattered Clouds,0,2012-10-27 09:56:00
3:56 AM,48.0,37.0,66,30.21,10.0,Calm,Calm,-,N/A,,Overcast,0,2012-10-27 10:56:00
4:56 AM,44.1,37.0,76,30.22,10.0,Calm,Calm,-,N/A,,Partly Cloudy,0,2012-10-27 11:56:00
5:56 AM,45.0,37.9,76,30.22,10.0,Calm,Calm,-,N/A,,Scattered Clouds,0,2012-10-27 12:56:00
6:56 AM,41.0,36.0,82,30.23,10.0,Calm,Calm,-,N/A,,Partly Cloudy,0,2012-10-27 13:56:00
7:56 AM,46.0,39.0,76,30.23,10.0,Calm,Calm,-,N/A,,Overcast,0,2012-10-27 14:56:00
8:56 AM,50.0,39.9,68,30.22,10.0,Calm,Calm,-,N/A,,Scattered Clouds,0,2012-10-27 15:56:00
9:56 AM,53.1,39.9,61,30.22,10.0,Calm,Calm,-,N/A,,Scattered Clouds,0,2012-10-27 16:56:00
10:56 AM,57.0,41.0,55,30.20,10.0,Variable,6.9,-,N/A,,Clear,0,2012-10-27 17:56:00
11:56 AM,62.1,43.0,50,30.20,10.0,NW,6.9,-,N/A,,Clear,320,2012-10-27 18:56:00
12:56 PM,66.9,45.0,45,30.17,10.0,Variable,4.6,-,N/A,,Partly Cloudy,0,2012-10-27 19:56:00
1:56 PM,64.9,46.0,50,30.16,10.0,WNW,5.8,-,N/A,,Overcast,300,2012-10-27 20:56:00
2:56 PM,69.1,46.0,44,30.13,10.0,Calm,Calm,-,N/A,,Clear,0,2012-10-27 21:56:00
3:56 PM,66.9,45.0,45,30.13,10.0,Variable,5.8,-,N/A,,Clear,0,2012-10-27 22:56:00
4:56 PM,62.1,45.0,53,30.15,10.0,Variable,5.8,19.6,N/A,,Clear,0,2012-10-27 23:56:00
5:56 PM,57.9,45.0,62,30.15,10.0,NW,4.6,-,N/A,,Clear,320,2012-10-28 00:56:00
6:56 PM,55.0,45.0,69,30.18,10.0,Calm,Calm,-,N/A,,Clear,0,2012-10-28 01:56:00
7:56 PM,48.9,44.1,83,30.19,10.0,Calm,Calm,-,N/A,,Clear,0,2012-10-28 02:56:00
8:56 PM,46.9,42.1,83,30.19,10.0,Calm,Calm,-,N/A,,Clear,0,2012-10-28 03:56:00
9:56 PM,45.0,41.0,86,30.19,10.0,Calm,Calm,-,N/A,,Clear,0,2012-10-28 04:56:00
10:56 PM,44.1,39.9,85,30.19,10.0,Calm,Calm,-,N/A,,Clear,0,2012-10-28 05:56:00
11:56 PM,43.0,39.0,86,30.18,10.0,Calm,Calm,-,N/A,,Clear,0,2012-10-28 06:56:00